Location: Observatorio Las Palmas
(29.0667°N, 110.9333°W)
Time: 17:17:18
(UTC-07:00)

Hubble Space Telescope - Visible Passes

Search period start: 28 August 2015 00:00
Search period end: 07 September 2015 00:00
Orbit: 541 x 545 km, 28.5° (Epoch: 27 August)

Date Brightness Start Highest point End Pass type
(mag) Time Alt. Az. Time Alt. Az. Time Alt. Az.
30 Aug 3.3 05:12:36 10° S 05:14:09 12° SSE 05:15:50 10° SE visible
31 Aug 3.1 05:02:38 10° SSW 05:05:09 16° SSE 05:07:45 10° ESE visible
01 Sep 2.7 04:53:43 13° SSW 04:56:09 20° SSE 04:59:17 10° ESE visible
02 Sep 2.3 04:45:25 19° SSW 04:47:09 26° SSE 04:50:39 10° E visible
03 Sep 1.9 04:37:05 27° S 04:38:10 32° SSE 04:41:54 10° E visible
04 Sep 1.5 04:28:42 38° S 04:29:11 39° SSE 04:33:06 10° E visible
05 Sep 1.2 04:20:18 48° SSE 04:20:18 48° SSE 04:24:13 10° E visible
06 Sep 1.4 04:11:54 50° SE 04:11:54 50° SE 04:15:20 10° E visible
